Regional Weather Roundup
Issued by NWS

Home | Current Version | Previous Version | Graphics & Text | Print | Product List | Glossary On
Versions: 1 2 3 4 5 6 7 8 9 10 11 12 13 14 15 16 17 18 19 20 21 22 23 24 25 26 27 28
000
ASUS45 KCYS 281810
RWRWY

WYOMING REGIONAL WEATHER ROUNDUP
NATIONAL WEATHER SERVICE CHEYENNE WY
1200 PM MDT WED SEP 28 2016

NOTE:  "FAIR" INDICATES FEW OR NO CLOUDS BELOW 12,000 FEET
WITH NO SIGNIFICANT WEATHER AND/OR OBSTRUCTIONS TO VISIBILITY.

WYZ001-281900-
YELLOWSTONE NATIONAL PARK

CITY           SKY/WX    TMP DP  RH WIND       PRES   REMARKS
LK YELLOWSTONE   N/A     62  37  39 E3        30.43F
6HR MIN TEMP:  30; 6HR MAX TEMP:  62;

W YELLOWSTONE  NOT AVBL

$$
WYZ002>013-054>058-071-098>099-281900-
NORTHERN WYOMING

CITY           SKY/WX    TMP DP  RH WIND       PRES   REMARKS
JACKSON        SUNNY     61  39  44 CALM      30.36F
CODY           FAIR      63  46  55 NE5       30.32F
GREYBULL       FAIR      67  51  56 CALM      30.27F
6HR MIN TEMP:  46; 6HR MAX TEMP:  67;

WORLAND        FAIR      67  49  52 N5        30.27F
6HR MIN TEMP:  44; 6HR MAX TEMP:  67;

SHERIDAN       FAIR      70  47  43 N3        30.29F
6HR MIN TEMP:  43; 6HR MAX TEMP:  70;

BUFFALO        NOT AVBL
GILLETTE       FAIR      75  43  31 SE9       30.31S
6HR MIN TEMP:  41; 6HR MAX TEMP:  75;

HULETT         FAIR      73  45  35 N6        30.32S
NEWCASTLE      FAIR      72  39  30 CALM      30.31S

$$
WYZ014>020-022>026-101>103-281900-
CENTRAL WYOMING

CITY           SKY/WX    TMP DP  RH WIND       PRES   REMARKS
BIG PINEY      FAIR      64  35  34 S6        30.40F
6HR MIN TEMP:  33; 6HR MAX TEMP:  64;

PINEDALE       FAIR      68  32  26 S9        30.41F
DUBOIS         FAIR      63  32  31 E12       30.41S
LANDER         FAIR      68  39  34 NE3       30.33F
6HR MIN TEMP:  45; 6HR MAX TEMP:  68;

RIVERTON       FAIR      66  47  50 VRB5      30.34F
6HR MIN TEMP:  45; 6HR MAX TEMP:  66;

CASPER         FAIR      70  39  32 E8        30.34F
6HR MIN TEMP:  37; 6HR MAX TEMP:  71;

DOUGLAS        FAIR      73  39  29 VRB3      30.34F
6HR MIN TEMP:  40; 6HR MAX TEMP:  73;


$$
WYZ021-027>030-104>119-281900-
SOUTHERN WYOMING

CITY           SKY/WX    TMP DP  RH WIND       PRES   REMARKS
EVANSTON       FAIR      68  39  34 NE5       30.36F
6HR MIN TEMP:  47; 6HR MAX TEMP:  68;

FORT BRIDGER   FAIR      63  40  42 NE7       30.40F
ROCK SPRINGS   FAIR      65  37  35 SE7       30.37F
6HR MIN TEMP:  42; 6HR MAX TEMP:  66;

DIXON          FAIR      69  38  32 W7        30.37F
RAWLINS        FAIR      66  32  28 VRB7      30.39F
6HR MIN TEMP:  32; 6HR MAX TEMP:  66;

SARATOGA       FAIR      66  32  28 CALM      30.39F
LARAMIE        FAIR      69  30  23 SE12G18   30.41F
6HR MIN TEMP:  33; 6HR MAX TEMP:  69;

CHEYENNE       FAIR      72  35  25 SE6       30.39F
6HR MIN TEMP:  45; 6HR MAX TEMP:  73;

TORRINGTON     FAIR      77  38  24 VRB6      30.30F
6HR MIN TEMP:  43; 6HR MAX TEMP:  77;

PINE BLUFFS    FAIR      73  34  23 E8        30.36S

$$




USA.gov is the U.S. government's official web portal to all federal, state and local government web resources and services.